SQ5LTL-2 Weather Reports


time (UTC)temp
C
wind
direction
speed
KPH
gust
KPH
rain 1hr
cm
rain 24hr
cm
rain mn
cm
humidity
%
barometer
mb
20260507030024 12 195 1.6 4.8 0.00 0.10 0.00 94 1008.1
20260507025523 12 266 1.6 4.8 0.00 0.10 0.00 93 1008.2
20260507025021 12 154 4.8 6.4 0.00 0.10 0.00 93 1008.1
20260507024520 13 146 3.2 8.0 0.00 0.10 0.00 93 1008.1
20260507024019 13 249 1.6 4.8 0.00 0.10 0.00 92 1008.2
20260507023518 13 92 3.2 8.0 0.00 0.10 0.00 92 1008.0
20260507023015 13 350 3.2 6.4 0.00 0.10 0.00 91 1008.0
20260507022535 13 327 4.8 6.4 0.00 0.10 0.00 91 1007.9
20260507022033 13 205 1.6 4.8 0.00 0.10 0.00 91 1007.6
20260507021531 13 201 3.2 6.4 0.00 0.10 0.00 92 1007.7
20260507021030 13 176 0.0 3.2 0.00 0.10 0.00 92 1007.8
20260507020529 13 219 3.2 4.8 0.00 0.10 0.00 92 1007.7
20260507020027 13 174 3.2 6.4 0.00 0.10 0.00 92 1007.7
20260507015526 13 194 3.2 4.8 0.00 0.10 0.00 92 1007.7
20260507015024 13 209 3.2 6.4 0.00 0.10 0.00 92 1007.6
20260507014522 13 147 1.6 4.8 0.00 0.10 0.00 92 1007.7
20260507014021 13 308 1.6 4.8 0.00 0.10 0.00 92 1007.8
20260507013520 13 320 1.6 4.8 0.00 0.10 0.00 92 1007.7
20260507013018 13 0.0 1.6 0.00 0.10 0.00 91 1007.7
20260507012517 13 176 0.0 3.2 0.00 0.10 0.00 91 1007.8
20260507012035 13 177 1.6 3.2 0.00 0.10 0.00 90 1007.7
20260507011534 13 177 0.0 3.2 0.00 0.10 0.00 89 1007.8
20260507011032 14 194 1.6 4.8 0.00 0.10 0.00 89 1007.7
20260507010532 14 196 1.6 3.2 0.00 0.10 0.00 88 1007.8
20260507010030 14 254 1.6 6.4 0.00 0.10 0.00 88 1007.9
20260507005529 14 259 3.2 6.4 0.00 0.10 0.00 87 1007.7
20260507005026 15 189 3.2 6.4 0.00 0.10 0.00 87 1007.5
20260507004525 15 190 3.2 6.4 0.00 0.10 0.00 87 1007.6
20260507004023 15 188 3.2 6.4 0.00 0.10 0.00 87 1007.6
20260507003522 15 182 3.2 6.4 0.00 0.10 0.00 87 1007.5
20260507003020 15 192 3.2 8.0 0.00 0.10 0.00 87 1007.6
20260507002519 15 188 3.2 6.4 0.00 0.10 0.00 87 1007.5
20260507002017 15 188 3.2 8.0 0.00 0.10 0.00 87 1007.5
20260507001516 15 193 3.2 8.0 0.00 0.10 0.00 87 1007.7
20260507001034 15 197 3.2 6.4 0.00 0.10 0.00 86 1007.5
20260507000533 15 208 3.2 9.7 0.00 0.10 0.00 86 1007.6
20260507000032 15 198 4.8 9.7 0.00 0.10 0.00 86 1007.6
20260506235530 15 197 4.8 11.3 0.00 0.10 0.00 86 1007.7
20260506235029 15 214 4.8 9.7 0.00 0.10 0.00 86 1007.8
20260506234528 15 190 3.2 8.0 0.00 0.10 0.00 85 1007.7
20260506234026 15 204 4.8 8.0 0.00 0.10 0.00 85 1007.6
20260506233525 15 209 4.8 8.0 0.00 0.10 0.00 85 1007.7
20260506233023 15 207 4.8 8.0 0.00 0.10 0.00 85 1007.6
20260506232521 15 191 3.2 6.4 0.00 0.10 0.00 85 1007.5
20260506232020 15 186 1.6 8.0 0.00 0.10 0.00 84 1007.5
20260506231518 15 181 3.2 9.7 0.00 0.10 0.00 85 1007.5
20260506231017 14 183 1.6 6.4 0.00 0.10 0.00 86 1007.5
20260506230515 14 207 1.6 4.8 0.00 0.10 0.00 87 1007.4
20260506230035 14 191 0.0 3.2 0.00 0.10 0.00 88 1007.4
20260506225532 13 209 0.0 3.2 0.00 0.10 0.00 89 1007.5
20260506225032 13 171 0.0 3.2 0.00 0.10 0.00 91 1007.5
20260506224529 13 209 1.6 3.2 0.00 0.10 0.00 92 1007.5
20260506224029 13 186 1.6 4.8 0.00 0.10 0.00 92 1007.4
20260506223527 13 193 1.6 3.2 0.00 0.10 0.00 92 1007.5
20260506223026 13 226 0.0 3.2 0.00 0.10 0.00 92 1007.4
20260506222524 13 188 0.0 3.2 0.00 0.10 0.00 92 1007.4
20260506222022 13 205 1.6 3.2 0.03 0.10 0.00 92 1007.3
20260506221521 13 0.0 0.0 0.03 0.10 0.00 91 1007.2
20260506221020 13 171 0.0 1.6 0.05 0.10 0.00 91 1007.4
20260506220518 14 183 0.0 1.6 0.05 0.10 0.00 90 1007.5
20260506220017 14 84 1.6 3.2 0.05 0.10 0.00 89 1007.4
20260506215536 15 50 1.6 3.2 0.05 0.10 0.10 88 1007.4
20260506215034 15 354 1.6 3.2 0.10 0.10 0.10 86 1007.4
20260506214532 15 216 1.6 4.8 0.10 0.10 0.10 84 1007.6
20260506214031 16 137 3.2 8.0 0.10 0.10 0.10 79 1007.6
20260506213529 16 17 1.6 4.8 0.10 0.10 0.10 81 1007.7
20260506213028 16 231 1.6 3.2 0.10 0.10 0.10 77 1007.8
20260506212527 16 200 4.8 12.9 0.10 0.10 0.10 77 1007.8
20260506212025 16 223 3.2 8.0 0.10 0.10 0.10 81 1007.6
20260506211523 16 292 3.2 8.0 0.08 0.08 0.08 81 1008.0
20260506211022 16 248 1.6 4.8 0.08 0.08 0.08 80 1008.0
20260506210520 17 216 3.2 6.4 0.08 0.08 0.08 76 1008.1
20260506210019 17 221 6.4 11.3 0.05 0.05 0.05 74 1008.2
20260506205518 18 215 6.4 20.9 0.05 0.05 0.05 66 1008.0
20260506205016 19 206 9.7 17.7 0.00 0.00 0.00 61 1008.0
20260506204535 19 205 9.7 19.3 0.00 0.00 0.00 61 1007.9
20260506204033 19 215 8.0 24.1 0.00 0.00 0.00 62 1008.0
20260506203532 20 216 8.0 24.1 0.00 0.00 0.00 60 1008.0
20260506203032 20 203 9.7 19.3 0.00 0.00 0.00 58 1008.1
20260506202529 20 202 6.4 14.5 0.00 0.00 0.00 58 1007.9
20260506202027 20 200 4.8 14.5 0.00 0.00 0.00 57 1007.9
20260506201526 20 190 6.4 12.9 0.00 0.00 0.00 56 1007.9
20260506201024 20 196 4.8 9.7 0.00 0.00 0.00 56 1007.8
20260506200524 19 207 4.8 9.7 0.00 0.00 0.00 57 1007.7
20260506200022 18 203 3.2 4.8 0.00 0.00 0.00 59 1007.8
20260506195521 17 200 1.6 3.2 0.00 0.00 0.00 66 1007.7
20260506195019 16 134 0.0 4.8 0.00 0.00 0.00 67 1007.6
20260506194517 17 164 1.6 4.8 0.00 0.00 0.00 66 1007.8
20260506194015 16 176 0.0 4.8 0.00 0.00 0.00 70 1007.6
20260506193534 16 151 1.6 3.2 0.00 0.00 0.00 70 1007.7
20260506193033 16 91 0.0 1.6 0.00 0.00 0.00 69 1007.7
20260506192531 16 207 0.0 1.6 0.00 0.00 0.00 69 1007.8
20260506192031 16 179 0.0 3.2 0.00 0.00 0.00 70 1007.7
20260506191528 16 170 0.0 3.2 0.00 0.00 0.00 71 1007.6
20260506191026 16 144 1.6 4.8 0.00 0.00 0.00 71 1007.6
20260506190525 16 200 0.0 3.2 0.00 0.00 0.00 71 1007.6
20260506190024 16 166 1.6 3.2 0.00 0.00 0.00 68 1007.6
20260506185522 16 149 0.0 1.6 0.00 0.00 0.00 67 1007.5
20260506185021 16 193 0.0 1.6 0.00 0.00 0.00 67 1007.3
20260506184520 16 0.0 1.6 0.00 0.00 0.00 67 1007.3
20260506184018 17 0.0 1.6 0.00 0.00 0.00 66 1007.2
20260506183516 17 180 0.0 1.6 0.00 0.00 0.00 66 1007.2
20260506183035 17 171 0.0 1.6 0.00 0.00 0.00 64 1007.3
20260506182533 17 175 0.0 1.6 0.00 0.00 0.00 64 1007.2
20260506182032 17 186 0.0 1.6 0.00 0.00 0.00 63 1007.1
20260506181531 18 0.0 1.6 0.00 0.00 0.00 62 1007.0
20260506181029 18 0.0 0.0 0.00 0.00 0.00 60 1006.8
20260506180529 18 0.0 0.0 0.00 0.00 0.00 58 1006.8
20260506180026 19 0.0 0.0 0.00 0.00 0.00 58 1006.9
20260506175525 19 142 0.0 1.6 0.00 0.00 0.00 57 1006.9
20260506175023 20 0.0 0.0 0.00 0.00 0.00 57 1007.0
20260506174522 20 0.0 0.0 0.00 0.00 0.00 56 1007.1
20260506174020 20 0.0 0.0 0.00 0.00 0.00 54 1007.0
20260506173519 21 0.0 0.0 0.00 0.00 0.00 53 1006.8
20260506173018 21 0.0 1.6 0.00 0.00 0.00 53 1006.8
20260506172517 21 291 0.0 1.6 0.00 0.00 0.00 51 1007.0
20260506172035 22 0.0 0.0 0.00 0.00 0.00 50 1006.9
20260506171533 22 0.0 1.6 0.00 0.00 0.00 48 1006.9
20260506171031 22 225 0.0 3.2 0.00 0.00 0.00 46 1006.9
20260506170530 22 243 0.0 3.2 0.00 0.00 0.00 46 1006.8
20260506170029 23 295 0.0 1.6 0.00 0.00 0.00 44 1006.9
20260506165527 23 217 1.6 4.8 0.00 0.00 0.00 42 1006.7
20260506165025 23 215 1.6 6.4 0.00 0.00 0.00 42 1006.8
20260506164524 23 220 1.6 3.2 0.00 0.00 0.00 41 1006.6
20260506164022 23 226 3.2 6.4 0.00 0.00 0.00 41 1006.7
20260506163521 23 213 3.2 6.4 0.00 0.00 0.00 41 1006.7
20260506163020 24 225 3.2 8.0 0.00 0.00 0.00 41 1006.7
20260506162519 24 221 4.8 8.0 0.00 0.00 0.00 40 1006.7
20260506162016 25 209 6.4 14.5 0.00 0.00 0.00 39 1006.7
20260506161536 25 211 4.8 14.5 0.00 0.00 0.00 39 1006.6
20260506161033 25 214 4.8 9.7 0.00 0.00 0.00 40 1006.7
20260506160532 24 211 4.8 8.0 0.00 0.00 0.00 41 1006.8
20260506160031 24 218 4.8 8.0 0.00 0.00 0.00 41 1006.7
20260506155530 24 214 4.8 9.7 0.00 0.00 0.00 41 1006.6
20260506155027 24 213 4.8 9.7 0.00 0.00 0.00 41 1006.7
20260506154526 25 212 6.4 11.3 0.00 0.00 0.00 40 1006.8
20260506154025 25 218 3.2 8.0 0.00 0.00 0.00 40 1006.8
20260506153523 25 220 4.8 11.3 0.00 0.00 0.00 40 1006.8
20260506153023 25 208 3.2 9.7 0.00 0.00 0.00 40 1006.8
20260506152520 25 227 4.8 9.7 0.00 0.00 0.00 41 1006.8
20260506152019 25 199 4.8 11.3 0.00 0.00 0.00 40 1006.8
20260506151517 25 205 4.8 9.7 0.00 0.00 0.00 40 1006.9
20260506151016 25 198 8.0 14.5 0.00 0.00 0.00 39 1007.0
20260506150536 26 214 4.8 17.7 0.00 0.00 0.00 39 1007.0
20260506150034 26 211 4.8 14.5 0.00 0.00 0.00 39 1006.8
20260506145531 25 206 8.0 22.5 0.00 0.00 0.00 39 1007.0
20260506145030 26 216 8.0 16.1 0.00 0.00 0.00 39 1006.9
20260506144529 26 225 8.0 16.1 0.00 0.00 0.00 38 1006.9
20260506144028 25 239 4.8 11.3 0.00 0.00 0.00 40 1007.0
20260506143525 25 205 3.2 9.7 0.00 0.00 0.00 41 1007.0
20260506143024 25 223 6.4 14.5 0.00 0.00 0.00 39 1007.0
20260506142524 26 215 8.0 20.9 0.00 0.00 0.00 37 1006.9
20260506142021 26 210 8.0 14.5 0.00 0.00 0.00 38 1006.8
20260506141520 25 208 8.0 16.1 0.00 0.00 0.00 40 1006.8
20260506141018 25 232 6.4 11.3 0.00 0.00 0.00 40 1006.9
20260506140518 25 226 4.8 16.1 0.00 0.00 0.00 40 1007.0
20260506140015 25 203 4.8 12.9 0.00 0.00 0.00 39 1006.8
20260506135534 25 212 9.7 17.7 0.00 0.00 0.00 40 1006.8
20260506135032 25 213 4.8 11.3 0.00 0.00 0.00 41 1006.8
20260506134531 25 223 6.4 14.5 0.00 0.00 0.00 41 1006.8
20260506134029 26 210 6.4 9.7 0.00 0.00 0.00 41 1006.7
20260506133529 26 219 6.4 12.9 0.00 0.00 0.00 40 1006.7
20260506133026 26 215 6.4 22.5 0.00 0.00 0.00 40 1006.7
20260506132525 25 198 9.7 16.1 0.00 0.00 0.00 41 1006.7
20260506132023 25 207 8.0 17.7 0.00 0.00 0.00 41 1006.7
20260506131522 25 205 6.4 16.1 0.00 0.00 0.00 41 1006.7
20260506131021 25 204 4.8 14.5 0.00 0.00 0.00 43 1006.7
20260506130519 25 218 9.7 17.7 0.00 0.00 0.00 42 1006.8
20260506130018 25 216 9.7 19.3 0.00 0.00 0.00 42 1006.8
20260506125516 25 216 9.7 20.9 0.00 0.00 0.00 41 1006.9
20260506125035 25 209 9.7 20.9 0.00 0.00 0.00 41 1006.8
20260506124535 25 200 8.0 16.1 0.00 0.00 0.00 41 1006.8
20260506124032 26 225 9.7 20.9 0.00 0.00 0.00 40 1006.8
20260506123531 26 210 6.4 14.5 0.00 0.00 0.00 40 1006.8
20260506123029 25 213 8.0 16.1 0.00 0.00 0.00 42 1006.9
20260506122528 25 227 9.7 24.1 0.00 0.00 0.00 41 1006.9
20260506122026 25 223 8.0 22.5 0.00 0.00 0.00 40 1006.8
20260506121526 25 211 11.3 24.1 0.00 0.00 0.00 41 1006.6
20260506121024 26 198 9.7 24.1 0.00 0.00 0.00 40 1006.7
20260506120522 26 223 8.0 17.7 0.00 0.00 0.00 40 1006.8
20260506120021 26 209 8.0 19.3 0.00 0.00 0.00 40 1006.7
20260506115518 25 208 8.0 17.7 0.00 0.00 0.00 41 1006.5
20260506115017 26 215 11.3 20.9 0.00 0.00 0.00 39 1006.7
20260506114517 25 205 8.0 14.5 0.00 0.00 0.00 40 1006.7
20260506114034 25 210 11.3 20.9 0.00 0.00 0.00 39 1006.6
20260506113533 25 197 11.3 29.0 0.00 0.00 0.00 39 1006.6
20260506113031 25 189 11.3 22.5 0.00 0.00 0.00 38 1006.6
20260506112530 25 194 12.9 30.6 0.00 0.00 0.00 38 1006.5
20260506112029 25 223 6.4 12.9 0.00 0.00 0.00 37 1006.6
20260506111527 26 205 9.7 19.3 0.00 0.00 0.00 37 1006.6
20260506111026 25 201 11.3 24.1 0.00 0.00 0.00 37 1006.5
20260506110524 26 195 8.0 17.7 0.00 0.00 0.00 37 1006.6
20260506110023 25 184 8.0 14.5 0.00 0.00 0.00 37 1006.5
20260506105522 25 197 8.0 17.7 0.00 0.00 0.00 37 1006.6
20260506105020 25 197 11.3 22.5 0.00 0.00 0.00 37 1006.5
20260506104518 25 201 6.4 12.9 0.00 0.00 0.00 38 1006.5
20260506104016 25 212 4.8 9.7 0.00 0.00 0.00 38 1006.7
20260506103535 25 193 8.0 19.3 0.00 0.00 0.00 37 1006.7
20260506103034 25 211 9.7 22.5 0.00 0.00 0.00 37 1006.7
20260506102532 25 199 6.4 20.9 0.00 0.00 0.00 37 1006.6
20260506102031 25 189 6.4 11.3 0.00 0.00 0.00 37 1006.7
20260506101529 25 187 9.7 20.9 0.00 0.00 0.00 37 1006.8
20260506101028 25 204 6.4 12.9 0.00 0.00 0.00 37 1006.7
20260506100526 25 201 6.4 17.7 0.00 0.00 0.00 37 1006.7
20260506100026 24 192 9.7 19.3 0.00 0.00 0.00 37 1006.9
20260506095524 25 197 9.7 19.3 0.00 0.00 0.00 36 1006.9
20260506095023 25 191 8.0 16.1 0.00 0.00 0.00 36 1006.9
20260506094520 25 209 9.7 30.6 0.00 0.00 0.00 36 1006.8
20260506094019 25 205 9.7 20.9 0.00 0.00 0.00 36 1006.7
20260506093517 25 209 8.0 16.1 0.00 0.00 0.00 36 1006.7
20260506093016 23 187 6.4 12.9 0.00 0.00 0.00 38 1006.8
20260506092534 23 183 8.0 20.9 0.00 0.00 0.00 38 1006.8
20260506092033 24 185 8.0 17.7 0.00 0.00 0.00 38 1006.8
20260506091531 23 211 8.0 16.1 0.00 0.00 0.00 38 1006.8
20260506091030 23 192 8.0 19.3 0.00 0.00 0.00 38 1006.6
20260506090528 23 204 6.4 19.3 0.00 0.00 0.00 39 1006.7
20260506090027 23 161 6.4 17.7 0.00 0.00 0.00 39 1006.8
20260506085526 23 176 8.0 14.5 0.00 0.00 0.00 39 1006.7
20260506085024 23 192 6.4 19.3 0.00 0.00 0.00 38 1006.6
20260506084523 23 217 4.8 8.0 0.00 0.00 0.00 39 1006.6
20260506084022 23 198 4.8 9.7 0.00 0.00 0.00 39 1006.6
20260506083520 23 188 6.4 16.1 0.00 0.00 0.00 40 1006.6
20260506083019 23 184 8.0 12.9 0.00 0.00 0.00 40 1006.8
20260506082517 22 171 6.4 14.5 0.00 0.00 0.00 40 1006.8
20260506082015 22 209 6.4 14.5 0.00 0.00 0.00 40 1006.8
20260506081535 22 205 9.7 20.9 0.00 0.00 0.00 41 1006.8
20260506081032 22 187 11.3 20.9 0.00 0.00 0.00 41 1006.9
20260506080531 22 199 8.0 14.5 0.00 0.00 0.00 40 1006.9
20260506073522 21 208 8.0 19.3 0.00 0.00 0.00 41 1007.1
20260506073022 21 193 9.7 16.1 0.00 0.00 0.00 42 1007.0
20260506072520 21 209 8.0 16.1 0.00 0.00 0.00 41 1007.0
20260506072017 21 207 8.0 16.1 0.00 0.00 0.00 42 1006.9
20260506071516 21 227 8.0 17.7 0.00 0.00 0.00 42 1007.0
20260506071035 21 191 8.0 16.1 0.00 0.00 0.00 42 1007.0
20260506070533 20 185 9.7 17.7 0.00 0.00 0.00 43 1007.0
20260506062021 19 189 6.4 14.5 0.00 0.00 0.00 45 1007.0
20260506061519 19 203 8.0 14.5 0.00 0.00 0.00 45 1007.2
20260506061016 18 195 6.4 11.3 0.00 0.00 0.00 46 1007.2
20260506060535 18 204 6.4 12.9 0.00 0.00 0.00 45 1007.2
20260506051019 16 140 4.8 9.7 0.00 0.00 0.00 50 1007.3
20260506050517 16 158 4.8 8.0 0.00 0.00 0.00 50 1007.5
20260506045034 16 161 4.8 9.7 0.00 0.00 0.00 51 1007.7
20260506044533 16 139 1.6 4.8 0.00 0.00 0.00 52 1007.7
20260506044030 16 142 1.6 3.2 0.00 0.00 0.00 52 1007.7
20260506043529 16 155 3.2 6.4 0.00 0.00 0.00 52 1007.6
20260506043027 16 117 3.2 4.8 0.00 0.00 0.00 51 1007.6
20260506042526 16 115 1.6 3.2 0.00 0.00 0.00 53 1007.6
20260506042024 15 113 1.6 3.2 0.00 0.00 0.00 55 1007.6
20260506041523 15 113 1.6 3.2 0.00 0.00 0.00 56 1007.7
20260506041021 14 157 1.6 4.8 0.00 0.00 0.00 56 1007.8
20260506040520 13 167 3.2 6.4 0.00 0.00 0.00 57 1007.7
20260506040018 13 182 3.2 6.4 0.00 0.00 0.00 58 1007.7
20260506035517 12 183 3.2 9.7 0.00 0.00 0.00 61 1007.7
20260506035036 11 152 1.6 4.8 0.00 0.00 0.00 67 1007.7
20260506034534 10 151 1.6 3.2 0.00 0.00 0.00 72 1007.7
20260506034032 10 136 1.6 3.2 0.00 0.00 0.00 72 1007.5
20260506033531 11 128 1.6 3.2 0.00 0.00 0.00 71 1007.6
20260506033031 10 111 1.6 6.4 0.00 0.00 0.00 72 1007.4
20260506032528 10 0.0 1.6 0.00 0.00 0.00 71 1007.5
20260506032027 11 0.0 1.6 0.00 0.00 0.00 71 1007.5
20260506031525 11 118 0.0 3.2 0.00 0.00 0.00 70 1007.6
20260506031024 11 127 0.0 3.2 0.00 0.00 0.00 68 1007.4
20260506030522 12 132 0.0 3.2 0.00 0.00 0.00 66 1007.5